COSMOS 1413 (GLONASS)

Satellite information

Favourite Embed

Satellite Type and Status

PAYLOADIN ORBIT

Key statistics

Satellite COSMOS 1413 (GLONASS) at a glance.

Uptime

15549

Days in orbit

Revolutions

≈ 2.1

Per day

Orbit

MEO

Medium Earth Orbit

Inclination

64.6

Latest

Satellite identification and parameters

Extended collection of information and parameters for COSMOS 1413 (GLONASS).

Object identification

Identified? True

Debris? False

Object name: COSMOS 1413 (GLONASS)

International designator: 1982-100A

Object number (NORAD): 13603

Object ID (CCSDS): 13603

Country: COMMONWEALTH OF INDEPENDENT STATES (CIS)

Current information (Y/N): Y

RCS size: MEDIUM

Orbital parameters

Period: 673.316 minutes

Inclination: 64.6342 deg

SMA: 25447.168 km

Apoapsis: 19089.016 km

Periapsis: 19049.049 km

RAAN: 80.92 deg

Eccentricy: 0.0007853

Argument of periapsis: 20.6615 deg

Mean anomaly: 340.1124 deg

Mean motion: 2.13866905 rev/day

Mean motion (dot): -0.00000006 rev/day2

B* drag term: 0.0 1/REarth

Two-line elements (TLE)

Creation date: May 8, 2025, 3:01 a.m.

Reference frame: TEME

Reference center: EARTH

Epoch: May 7, 2025, 2:54 p.m. UTC

TLE line 0: 0 COSMOS 1413 (GLONASS)

TLE line 1: 1 13603U 82100A 25127.62127933 -.00000006 00000-0 00000-0 0 9991

TLE line 2: 2 13603 64.6342 80.9200 0007853 20.6615 340.1124 2.13866905332500

Live tracking on map

Real-time ground track for satellite COSMOS 1413 (GLONASS).

In-orbit conjunctions

There are no conjunctions computed for COSMOS 1413 (GLONASS), at the moment. Check back to stay up to date, as we update our databases every day.

Go to all conjunctions

Associated space launch

GLONASS navigation satellite

COSMOS 1413 (GLONASS) was lifted into orbit during the mission ‘Proton | Uragan 1’, on board a Proton space rocket.

The launch took place on Oct. 12, 1982, 2:56 p.m. from 200/39 (200L).

For more information about the launch, click the button.

Launch to space Proton | Uragan 1
Proton | Uragan 1

Agency: N/A

Status: Launch Successful

Launch date: Oct. 12, 1982, 2:56 p.m. UTC

Rocket: Proton

Launch pad: 200/39 (200L)

Location: Baikonur Cosmodrome, Republic of Kazakhstan

...

Latest news about this satellite

There are no fresh news available about this satellite. Check back as we update our databases every day.


Newsletter sign-up

Weekly statistics, charts and insights to help you stay on top of the space industry.